Location: Asheville, NC
(35.6000°N, 82.5500°W)
Time: 19:15:30
(UTC-04:00)

Vanguard 1 Rocket - Pass Details

Date: 16 February 2018
Orbit: 652 x 4225 km, 34.3° (Epoch: 27 May)

Event Time Altitude Azimuth Distance (km) Brightness Sun altitude
Rises 00:23:49 0° 241° (WSW) 7,139 11.9 -66.3°
Enters shadow 00:26:31 - 241° (WSW) 6,697 11.7 -66.4°
Exits shadow 01:06:01 37° 85° (E) 5,189 11.0 -66.2°
Drops below altitude 10° 01:16:01 10° 80° (E) 6,552 11.8 -65.7°
Sets 01:20:16 0° 79° (E) 7,236 12.2 -65.4°
